Home > Weather > Tuzla > Past weeks

Flag for Bosnia-Herzegovina Past Weather in Tuzla, Bosnia-Herzegovina — Yesterday and Last 2 Weeks

Now
52 °F

Clear.


Feels Like: 52 °F
Forecast: 60 / 88 °F
Wind: 1 mph from North

Location: Tuzla

Current Time: May 28, 2016 at 6:19:08 AM

Latest Report: May 28, 2016 at 6:00 AM


Visibility: 10 mi

Pressure: 29.98 "Hg

Humidity: 100%

Dew Point: 52 °F

Location of TuzlaLocation

Past Weather in Tuzla — Graph

°F

Tuzla Temperature Yesterday

Maximum temperature yesterday: 82 °F (at 2:00 PM)
Minimum temperature yesterday: 52 °F (at 6:30 AM)
Average temperature yesterday: 73 °F

High & Low Weather Summary for the Past Weeks

 TemperatureHumidityPressure
High82 °F (May 23, 3:00 PM)100% (May 12, 9:00 PM)30.09 "Hg (May 12, 9:00 PM)
Low32 °F (May 17, 5:30 AM)23% (May 23, 3:30 PM)29.50 "Hg (May 13, 11:30 AM)
Average63 °F65%29.89 "Hg
* Reported May 12 9:00 PM — May 27 9:30 PM, Tuzla, Weather by CustomWeather, © 2016

Note: Actual official high and low records may vary slightly from our data, if they occured in-between our weather recording intervals... More about our weather records

Advertising

Tuzla Weather History for the Previous 24 Hours

Scroll right to see more
 ConditionsComfort  
Time TempWeatherWind HumidityBarometerVisibility
9:30 PM
Fri, May 27
64 °FClear.5 mph73%30.01 "Hg10 mi
9:00 PM64 °FSunny.5 mph73%30.01 "Hg10 mi
8:30 PM68 °FSunny.3 mph64%30.01 "Hg10 mi
8:00 PM70 °FSunny.6 mph60%30.01 "Hg10 mi
7:00 PM77 °FSunny.7 mph44%29.98 "Hg10 mi
6:30 PM79 °FSunny.8 mph39%29.98 "Hg10 mi
6:00 PM81 °FSunny.7 mph37%29.98 "Hg10 mi
5:30 PM81 °FPassing clouds.6 mph34%30.01 "HgN/A
5:00 PM81 °FPassing clouds.6 mph30%30.01 "HgN/A
4:30 PM81 °FPassing clouds.6 mph34%30.01 "HgN/A
4:00 PM81 °FPassing clouds.6 mph34%30.01 "HgN/A
3:30 PM82 °FPassing clouds.5 mph35%30.01 "HgN/A
3:00 PM81 °FPassing clouds.6 mph34%30.01 "HgN/A
2:30 PM82 °FPassing clouds.5 mph32%30.04 "HgN/A
2:00 PM82 °FPassing clouds.2 mph30%30.04 "HgN/A
1:30 PM81 °FPassing clouds.5 mph30%30.04 "HgN/A
1:00 PM79 °FPassing clouds.3 mph30%30.04 "HgN/A
12:30 PM79 °FPassing clouds.3 mph32%30.04 "HgN/A
12:00 PM79 °FPassing clouds.3 mph37%30.07 "HgN/A
11:30 AM77 °FPassing clouds.3 mph42%30.07 "HgN/A
11:00 AM77 °FPassing clouds.2 mph51%30.07 "HgN/A
10:00 AM72 °FPassing clouds.2 mph65%30.07 "HgN/A
9:00 AM66 °FPassing clouds.1 mph78%30.07 "HgN/A
8:00 AM59 °FPassing clouds.2 mph100%30.07 "HgN/A
7:30 AM57 °FPassing clouds.2 mph100%30.07 "HgN/A
7:00 AM54 °FSunny.1 mph100%30.07 "Hg10 mi
6:30 AM52 °FSunny.1 mph100%30.04 "Hg10 mi
Weather by CustomWeather, © 2016

See weather overviewHow to use our weather pages